Miscellaneous Local Product
Issued by NWS North Platte, NE

Home | Current Version | Previous Version | Graphics & Text | Print | Product List | Glossary On
Versions: 1 2 3 4 5 6 7 8 9 10 11 12 13 14 15 16 17 18 19 20 21 22 23 24 25 26 27 28 29 30 31 32 33 34 35 36 37 38 39 40 41 42 43 44 45 46 47 48 49 50
000
AXUS43 KLBF 172310
MISLBF


WESTERN AND NORTH CENTRAL NEBRASKA HOURLY WEATHER ROUNDUP
NATIONAL WEATHER SERVICE NORTH PLATTE NE
500 PM CST WED DEC 17 2014

***STATIONS NOT REPORTING VARIABLES SUCH AS SKY/WEATHER OR
PRESSURE ARE PROVIDED BY THE NEBRASKA DEPARTMENT OF
ROADS...RAWS...AND APRS NETWORKS...AND ARE NOT UNDER
NATIONAL WEATHER SERVICE QUALITY CONTROL***

...OBSERVATIONS IN AND NEAR THE EASTERN PANHANDLE OF NEBRASKA...

CITY           SKY/WX    TMP DP  RH WIND       PRES   REMARKS
PINE RIDGE     CLOUDY    25  21  85 S8        29.98R WCI  16
CHADRON        PTCLDY    24  18  77 S6        29.98R WCI  17
ALLIANCE       CLOUDY    23  21  92 S13       29.97R WCI  11
SIDNEY         CLOUDY    22  20  92 S12       29.97R FOG     WCI  10
WHITECLAY        N/A     24  20  85 S10         N/A  WCI  14
CRESCENT LAKE    N/A     22  20  92 S7          N/A  WCI  14
LISCO            N/A     26  22  82 E9          N/A  WCI  17
BIG SPRINGS      N/A     24  22  93 S5          N/A  WCI  18
$$

...OBSERVATIONS IN NORTH CENTRAL NEBRASKA...

CITY           SKY/WX    TMP DP  RH WIND       PRES   REMARKS
VALENTINE      CLOUDY    22  19  89 S12       30.09R WCI  10
THEDFORD       CLOUDY    22  21  96 S8        30.08S FOG     WCI  13
AINSWORTH      CLOUDY    21  20  96 S6        30.10S FOG     WCI  13
O`NEILL        CLOUDY    20  19  96 CALM      30.18S
ORD            CLOUDY    22  18  85 SE6       30.16S WCI  14
BROKEN BOW     CLOUDY    22  19  89 SE7       30.12S WCI  13
BROWNLEE         N/A     20  18  91 CALM        N/A
SPRINGVIEW       N/A     21  18  86 SE3         N/A
BREWSTER         N/A     24  24  99 S8          N/A  WCI  15
ROSE             N/A     24  25 100 MISG        N/A
SARGENT          N/A     21  19  93 CALM        N/A
COMSTOCK         N/A     28  25  88 SE6         N/A  WCI  21
CHAMBERS         N/A     20  15  82 CALM        N/A
$$

...OBSERVATIONS IN SOUTHWEST NEBRASKA AND FAR NORTHEAST COLORADO...

CITY           SKY/WX    TMP DP  RH WIND       PRES   REMARKS
WRAY           CLOUDY    24  24 100 CALM      30.02R FOG
IMPERIAL       CLOUDY    23  20  88 S6        30.05S WCI  16
OGALLALA       CLOUDY    23  22  96 S6        30.05R WCI  15
NORTH PLATTE   CLOUDY    22  21  96 SE8       30.09R FOG     WCI  12
MCCOOK         CLOUDY    23  22  96 E8        30.10S FOG     WCI  14
LEXINGTON      CLOUDY    23  22  95 E7        30.12F WCI  15
PAXTON           N/A     23  22  94 S6          N/A  WCI  16
BRADY            N/A     21  19  93 N3          N/A
GOTHENBURG       N/A     22  20  92 SE3         N/A
CALLAWAY         N/A     21  20  96 SE6         N/A  WCI  13
$$

...NORTH PLATTE AREA...

CITY           SKY/WX    TMP DP  RH WIND       PRES   REMARKS
AIRPORT        CLOUDY    22  21  96 SE8       30.09R FOG     WCI  12
DOWNTOWN         N/A     22  20  93 S3          N/A
$$

...SOME WEATHER OBSERVATIONS FROM AROUND THE REGION...

CITY           SKY/WX    TMP DP  RH WIND       PRES   REMARKS
DENVER         CLOUDY    36  28  73 NE8       29.91R WCI  30
LARAMIE        MOCLDY    29  19  66 N6        29.91R WCI  23
CHEYENNE       MOCLDY    39  21  48 S8        29.90R WCI  33
SCOTTSBLUFF    CLEAR     20  17  88 E9        29.96R WCI   9
RAPID CITY     CLOUDY    23  20  88 NE8       30.00R WCI  14
PIERRE         CLOUDY    18  15  88 SE13      30.17R WCI   5
SIOUX FALLS    PTCLDY    15   9  76 NE6       30.27R WCI   6
OMAHA          CLOUDY    28  16  60 E5        30.28S WCI  23
GRAND ISLAND   CLOUDY    25  19  78 E8        30.19S WCI  16
KANSAS CITY    CLOUDY    29  20  69 NE7       30.25S WCI  22
WICHITA        LGT SNOW  32  29  88 E5        30.17R FOG     WCI  27
HAYS           CLOUDY    30  19  64 E14       30.10S WCI  20
LIBERAL        CLOUDY    37  30  75 SE14      29.99R WCI  29
GOODLAND       FOG       25  24  96 E7        30.02R VSB 1/4 WCI  17
$$



USA.gov is the U.S. government's official web portal to all federal, state and local government web resources and services.